This is the latest recevied weather packets stored in our database for station/object KF0WJA. If no packets are shown the sender has not sent any weather packets the latest 10 day(s).
| Time | Temp. | Humidity | Pressure | Rain* | Wind** | Luminosity | Snow |
|---|---|---|---|---|---|---|---|
| 1788148998 | 30° C | 46% | 1014.8 hPa | 0 mm | - | 0 W/m² | - |
| 1788148697 | 30° C | 46% | 1015.1 hPa | 0 mm | - | 0 W/m² | - |
| 1788148395 | 30° C | 46% | 1015.1 hPa | 0 mm | - | 0 W/m² | - |
| 1788148090 | 30.56° C | 46% | 1014.9 hPa | 0 mm | - | 0 W/m² | - |
| 1788147786 | 30° C | 46% | 1015 hPa | 0 mm | - | 0 W/m² | - |
| 1788147481 | 30.56° C | 46% | 1014.9 hPa | 0 mm | - | 0 W/m² | - |
| 1788147181 | 30° C | 46% | 1015 hPa | 0 mm | - | 0 W/m² | - |
| 1788146876 | 30° C | 46% | 1015 hPa | 0 mm | - | 0 W/m² | - |
| 1788146571 | 30.56° C | 46% | 1015 hPa | 0 mm | - | 0 W/m² | - |
| 1788146266 | 30.56° C | 46% | 1014.9 hPa | 0 mm | - | 0 W/m² | - |
| 1788145966 | 30.56° C | 46% | 1014.8 hPa | 0 mm | - | 0 W/m² | - |
| 1788145660 | 30.56° C | 46% | 1014.8 hPa | 0 mm | - | 0 W/m² | - |
| 1788145358 | 30.56° C | 45% | 1015.3 hPa | 0 mm | - | 0 W/m² | - |
| 1788145058 | 30.56° C | 46% | 1015 hPa | 0 mm | - | 0 W/m² | - |
| 1788144753 | 30.56° C | 46% | 1014.8 hPa | 0 mm | - | 0 W/m² | - |
| 1788144449 | 30.56° C | 46% | 1014.9 hPa | 0 mm | - | 0 W/m² | - |
| 1788144147 | 30.56° C | 46% | 1014.5 hPa | 0 mm | - | 0 W/m² | - |
| 1788143846 | 30.56° C | 46% | 1014.5 hPa | 0 mm | - | 0 W/m² | - |
| 1788143540 | 30.56° C | 45% | 1014.3 hPa | 0 mm | - | 0 W/m² | - |
| 1788143235 | 30.56° C | 45% | 1014.6 hPa | 0 mm | - | 0 W/m² | - |
| 1788142935 | 31.11° C | 45% | 1014.3 hPa | 0 mm | - | 0 W/m² | - |
| 1788142635 | 31.67° C | 44% | 1014.3 hPa | 0 mm | - | 0 W/m² | - |
| 1788142329 | 31.67° C | 44% | 1014.4 hPa | 0 mm | - | 0 W/m² | - |
| 1788142026 | 31.67° C | 43% | 1014.4 hPa | 0 mm | - | 0 W/m² | - |
| 1788141725 | 32.22° C | 42% | 1013.9 hPa | 0 mm | - | 0 W/m² | - |
* Rain latest hour (hover to see other rain measurements)
** Current wind speed in m/s (hover to see current wind gust speed)